{"data":{"norad_id":69422,"epoch":"2026-09-18T02:55:47.983296Z","epoch_age_seconds":234427,"freshness":"STALE","line1":"1 69422U 26126C   26261.12208314  .00010038  00000+0  31286-3 0  9992","line2":"2 69422  97.2847 122.4473 0001607  95.9771 264.1655 15.33442213 17169","mean_motion":15.33442213,"eccentricity":0.0001607,"inclination_deg":97.2847,"raan_deg":122.4473,"arg_perigee_deg":95.9771,"mean_anomaly_deg":264.1655,"bstar":0.00031286,"rev_number":1716,"period_min":93.90637532945,"perigee_km":464.45168590528,"apogee_km":466.65124737846,"semimajor_km":6843.6884666419,"source":"CELESTRAK","updated_at":"2026-09-20T09:00:44.194409Z"}}